EN

Hourly Weather Amberley

Today, 24 January, Sunday

Time Temperature Precipitation Wind Pressure Humidity
00:00 +10°C° 0 mm 5 mps 745 mmHg 91%
01:00 +11°C° 0 mm 4 mps 745 mmHg 91%
02:00 +10°C° 0 mm 3 mps 745 mmHg 91%
03:00 +9°C° 0 mm 2 mps 746 mmHg 91%
04:00 +10°C° 0 mm 2 mps 746 mmHg 87%
05:00 +10°C° 0 mm 2 mps 746 mmHg 84%
06:00 +10°C° 0 mm 2 mps 746 mmHg 80%
07:00 +13°C° 0 mm 2 mps 746 mmHg 68%
08:00 +15°C° 0 mm 2 mps 747 mmHg 57%
09:00 +18°C° 0 mm 2 mps 747 mmHg 45%
10:00 +21°C° 0 mm 3 mps 746 mmHg 47%
11:00 +22°C° 0 mm 4 mps 746 mmHg 44%
12:00 +25°C° 0 mm 4 mps 746 mmHg 40%
13:00 +25°C° 0 mm 4 mps 746 mmHg 39%
14:00 +25°C° 0 mm 5 mps 746 mmHg 39%
15:00 +24°C° 0 mm 6 mps 746 mmHg 39%
16:00 +23°C° 0 mm 6 mps 746 mmHg 41%
17:00 +22°C° 0 mm 6 mps 746 mmHg 43%
18:00 +22°C° 0 mm 7 mps 746 mmHg 45%
19:00 +20°C° 0 mm 7 mps 746 mmHg 51%
20:00 +17°C° 0 mm 6 mps 746 mmHg 57%
21:00 +15°C° 0 mm 6 mps 746 mmHg 63%
22:00 +15°C° 0 mm 6 mps 746 mmHg 65%
23:00 +14°C° 0 mm 5 mps 747 mmHg 68%

Tomorrow, 25 January, Monday

Time Temperature Precipitation Wind Pressure Humidity
00:00 +14°C° 0 mm 4 mps 747 mmHg 71%
01:00 +14°C° 0 mm 4 mps 747 mmHg 71%
02:00 +14°C° 0 mm 4 mps 747 mmHg 71%
03:00 +14°C° 0 mm 4 mps 747 mmHg 71%
04:00 +14°C° 0 mm 4 mps 747 mmHg 72%
05:00 +14°C° 0 mm 4 mps 747 mmHg 72%
06:00 +14°C° 0 mm 4 mps 747 mmHg 73%
07:00 +17°C° 0 mm 4 mps 747 mmHg 63%
08:00 +20°C° 0 mm 4 mps 748 mmHg 53%
09:00 +23°C° 0 mm 5 mps 748 mmHg 43%
10:00 +25°C° 0 mm 5 mps 748 mmHg 41%
11:00 +26°C° 0 mm 6 mps 748 mmHg 40%
12:00 +27°C° 0 mm 7 mps 747 mmHg 38%
13:00 +27°C° 0 mm 7 mps 747 mmHg 38%
14:00 +27°C° 0 mm 7 mps 747 mmHg 37%
15:00 +27°C° 0 mm 7 mps 747 mmHg 37%
16:00 +26°C° 0 mm 7 mps 747 mmHg 39%
17:00 +24°C° 0 mm 6 mps 747 mmHg 41%
18:00 +24°C° 0 mm 6 mps 747 mmHg 43%
19:00 +21°C° 0 mm 5 mps 748 mmHg 57%
20:00 +17°C° 0 mm 5 mps 749 mmHg 70%
21:00 +14°C° 0 mm 4 mps 749 mmHg 83%
22:00 +14°C° 0 mm 3 mps 750 mmHg 85%
23:00 +14°C° 0 mm 3 mps 750 mmHg 88%

Day after tomorrow, 26 January, Tuesday

Time Temperature Precipitation Wind Pressure Humidity
00:00 +15°C° 0 mm 2 mps 751 mmHg 90%
01:00 +14°C° 0 mm 2 mps 751 mmHg 91%
02:00 +14°C° 0 mm 2 mps 750 mmHg 91%
03:00 +14°C° 0 mm 2 mps 750 mmHg 92%
04:00 +13°C° 0 mm 2 mps 750 mmHg 92%
05:00 +13°C° 0 mm 2 mps 750 mmHg 92%
06:00 +13°C° 0 mm 2 mps 750 mmHg 92%
07:00 +14°C° 0 mm 3 mps 751 mmHg 79%
08:00 +18°C° 0 mm 3 mps 751 mmHg 67%
09:00 +21°C° 0 mm 3 mps 751 mmHg 54%
10:00 +24°C° 0 mm 3 mps 751 mmHg 49%
11:00 +26°C° 0 mm 4 mps 750 mmHg 43%
12:00 +29°C° 0 mm 5 mps 750 mmHg 38%
13:00 +30°C° 0 mm 5 mps 749 mmHg 36%
14:00 +32°C° 0 mm 5 mps 749 mmHg 34%
15:00 +33°C° 0 mm 5 mps 748 mmHg 33%
16:00 +32°C° 0 mm 5 mps 748 mmHg 34%
17:00 +30°C° 0 mm 5 mps 748 mmHg 36%
18:00 +30°C° 0 mm 5 mps 748 mmHg 38%
19:00 +27°C° 0 mm 4 mps 748 mmHg 44%
20:00 +23°C° 0 mm 4 mps 748 mmHg 50%
21:00 +20°C° 0 mm 3 mps 748 mmHg 56%
22:00 +19°C° 0 mm 3 mps 748 mmHg 58%
23:00 +18°C° 0 mm 3 mps 748 mmHg 61%

27 January, Wednesday

Time Temperature Precipitation Wind Pressure Humidity
00:00 +18°C° 0 mm 3 mps 748 mmHg 63%
01:00 +17°C° 0 mm 3 mps 748 mmHg 64%
02:00 +17°C° 0 mm 3 mps 748 mmHg 66%
03:00 +16°C° 0 mm 3 mps 747 mmHg 68%
04:00 +17°C° 0 mm 3 mps 747 mmHg 69%
05:00 +17°C° 0 mm 4 mps 747 mmHg 70%
06:00 +17°C° 0 mm 4 mps 747 mmHg 71%
07:00 +20°C° 0 mm 4 mps 748 mmHg 60%
08:00 +23°C° 0 mm 5 mps 748 mmHg 48%
09:00 +27°C° 0 mm 5 mps 748 mmHg 36%
10:00 +28°C° 0 mm 6 mps 748 mmHg 33%
11:00 +30°C° 0 mm 6 mps 748 mmHg 31%
12:00 +32°C° 0 mm 7 mps 748 mmHg 28%
13:00 +32°C° 0 mm 7 mps 748 mmHg 29%
14:00 +30°C° 0 mm 6 mps 747 mmHg 31%
15:00 +30°C° 0 mm 6 mps 747 mmHg 33%
16:00 +29°C° 0 mm 5 mps 747 mmHg 36%
17:00 +28°C° 0 mm 5 mps 748 mmHg 40%
18:00 +27°C° 0 mm 4 mps 748 mmHg 43%
19:00 +25°C° 0 mm 3 mps 748 mmHg 47%
20:00 +24°C° 0 mm 3 mps 748 mmHg 51%
21:00 +21°C° 0 mm 3 mps 748 mmHg 55%
22:00 +20°C° 0 mm 3 mps 748 mmHg 58%
23:00 +20°C° 0 mm 3 mps 749 mmHg 61%

28 January, Thursday

Time Temperature Precipitation Wind Pressure Humidity
00:00 +19°C° 0 mm 3 mps 749 mmHg 64%
01:00 +19°C° 0 mm 4 mps 749 mmHg 67%
02:00 +19°C° 0 mm 5 mps 749 mmHg 69%
03:00 +17°C° 0 mm 6 mps 749 mmHg 72%
04:00 +16°C° 0.1 mm 5 mps 749 mmHg 78%
05:00 +15°C° 0.1 mm 4 mps 749 mmHg 84%
06:00 +14°C° 0.1 mm 3 mps 750 mmHg 91%
07:00 +14°C° 0.3 mm 3 mps 750 mmHg 90%
08:00 +15°C° 0.3 mm 2 mps 750 mmHg 90%
09:00 +15°C° 0.3 mm 2 mps 751 mmHg 90%
10:00 +15°C° 0.3 mm 2 mps 751 mmHg 91%
11:00 +15°C° 0.3 mm 2 mps 751 mmHg 92%
12:00 +15°C° 0.3 mm 2 mps 751 mmHg 92%
13:00 +14°C° 0.1 mm 3 mps 751 mmHg 92%
14:00 +14°C° 0.1 mm 4 mps 751 mmHg 91%
15:00 +14°C° 0.1 mm 4 mps 752 mmHg 90%
16:00 +14°C° 0.1 mm 4 mps 752 mmHg 91%
17:00 +13°C° 0.1 mm 4 mps 752 mmHg 91%
18:00 +12°C° 0.1 mm 5 mps 753 mmHg 92%
19:00 +12°C° 0.1 mm 4 mps 754 mmHg 92%
20:00 +12°C° 0.1 mm 4 mps 754 mmHg 92%
21:00 +11°C° 0.1 mm 3 mps 755 mmHg 92%
22:00 +11°C° 0 mm 3 mps 755 mmHg 92%
23:00 +12°C° 0 mm 2 mps 756 mmHg 91%

29 January, Friday

Time Temperature Precipitation Wind Pressure Humidity
00:00 +12°C° 0 mm 2 mps 756 mmHg 90%
01:00 +12°C° 0 mm 2 mps 756 mmHg 89%
02:00 +12°C° 0 mm 2 mps 756 mmHg 89%
03:00 +12°C° 0 mm 2 mps 756 mmHg 88%
04:00 +12°C° 0 mm 2 mps 756 mmHg 88%
05:00 +12°C° 0 mm 2 mps 756 mmHg 87%
06:00 +12°C° 0 mm 2 mps 756 mmHg 86%
Show more